Location: Buckland
(65.9785°N, 161.1281°W)
Time: 23:59:11
(UTC+00:00)

S-56A Canister/Altair - Visible Passes

Search period start: 05 December 2020 00:00
Search period end: 15 December 2020 00:00
Orbit: 632 x 2500 km, 38.9° (Epoch: 05 December)

Date Brightness Start Highest point End Pass type
(mag) Time Alt. Az. Time Alt. Az. Time Alt. Az.
05 Dec 11.0 04:30:38 10° S 04:32:46 11° SSE 04:34:47 10° SSE visible
05 Dec 10.8 06:31:09 10° SSW 06:34:44 12° S 06:35:55 12° S visible
06 Dec 11.1 03:57:31 10° S 04:00:01 11° SSE 04:02:23 10° SSE visible
06 Dec 10.8 05:57:27 10° SSW 06:02:03 13° S 06:04:59 11° SSE visible
07 Dec 11.2 03:24:38 10° SSE 03:27:15 11° SSE 03:29:43 10° SE visible
07 Dec 10.8 05:23:55 10° SSW 05:29:19 14° S 05:34:02 10° SSE visible
07 Dec 11.0 07:29:08 10° SW 07:31:05 11° SSW 07:31:29 11° SSW visible
08 Dec 11.3 02:52:01 10° SSE 02:54:27 11° SSE 02:56:47 10° SE visible
08 Dec 10.9 04:50:31 10° SSW 04:56:33 15° S 05:01:49 10° SSE visible
08 Dec 10.9 06:54:35 10° SW 06:58:27 12° SSW 07:00:34 11° S visible
09 Dec 11.4 02:19:47 10° SSE 02:21:38 10° SSE 02:23:25 10° SE visible
09 Dec 11.0 04:17:12 10° SSW 04:23:44 15° S 04:29:28 10° SE visible
09 Dec 10.9 06:20:36 10° SW 06:25:46 14° SSW 06:29:40 11° S visible
10 Dec 11.1 03:43:58 10° SSW 03:50:53 16° S 03:57:01 10° SE visible
10 Dec 10.9 05:46:51 10° SW 05:53:02 15° SSW 05:58:25 10° SSE visible
11 Dec 11.2 03:10:50 10° SSW 03:18:01 16° SSE 03:24:26 10° SE visible
11 Dec 11.0 05:13:14 10° SW 05:20:15 16° S 05:26:20 10° SSE visible
12 Dec 11.3 02:37:48 10° SSW 02:45:06 16° SSE 02:51:44 10° SE visible
12 Dec 11.1 04:39:43 10° SW 04:47:25 17° S 04:54:06 10° SSE visible
12 Dec 11.1 06:45:36 10° SW 06:49:13 12° SSW 06:52:33 10° SSW visible
13 Dec 11.4 02:04:54 10° S 02:12:11 16° SSE 02:18:54 10° SE visible
13 Dec 11.2 04:06:18 10° SW 04:14:32 18° S 04:21:45 10° SSE visible
13 Dec 11.2 06:11:17 10° SW 06:16:30 13° SSW 06:21:12 10° S visible
14 Dec 11.5 01:32:07 10° S 01:39:15 15° SSE 01:45:56 10° SE visible
14 Dec 11.3 03:32:58 10° SW 03:41:36 19° S 03:49:17 10° SE visible
14 Dec 11.2 05:37:19 10° SW 05:43:44 15° SSW 05:49:28 10° S visible
